Location: Ellerstadt
(49.4644°N, 8.2615°E)
Time: 23:47:44
(UTC+00:00)

IRIDIUM 100 - Pass Details

Date: 02 October 2021
Orbit: 776 x 779 km, 86.4° (Epoch: 19 October)

Event Time Altitude Azimuth Distance (km) Brightness Sun altitude
Exits shadow 23:42:49 12° 21° (NNE) 2,226 ? -44.1°
Drops below altitude 10° 23:43:08 10° 19° (NNE) 2,341 ? -44.1°
Sets 23:45:40 0° 11° (N) 3,273 ? -44.1°
